Regional Weather Roundup
Issued by NWS Little Rock, AR

Home | Current Version | Previous Version | Graphics & Text | Print | Product List | Glossary On
Versions: 1 2 3 4 5 6 7 8 9 10 11 12 13 14 15 16 17 18 19 20 21 22 23 24 25 26 27 28 29 30 31 32 33 34 35 36 37 38 39 40 41 42 43 44 45 46 47 48 49 50
110
ASUS44 KLZK 231705
RWRLZK

WEATHER ROUNDUP FOR ARKANSAS
NATIONAL WEATHER SERVICE LITTLE ROCK AR
1200 PM CDT FRI JUN 23 2017

NOTE: "FAIR" INDICATES FEW OR NO CLOUDS BELOW 12,000 FEET WITH NO
SIGNIFICANT WEATHER AND/OR OBSTRUCTIONS TO VISIBILITY.

ARZ001-003-010-029-231800-
NORTHWEST ARKANSAS

CITY           SKY/WX    TMP DP  RH WIND       PRES   REMARKS
FAYETTEVILLE   PTSUNNY   83  74  74 W8        29.83F HX  89
FORT SMITH     PTSUNNY   89  75  63 W9        29.79F HX  99
HARRISON       CLOUDY    86  74  67 VRB7      29.81F HX  94
BENTONVILLE    CLOUDY    81  73  78 W5        29.85R HX  85
ROGERS         CLOUDY    83  74  74 W9        29.84S HX  89
SILOAM SPGS    CLOUDY    82  73  74 W7        29.83S HX  88
HIGHFILL       CLOUDY    83  75  77 W10       29.84S HX  90
SPRINGDALE     CLOUDY    82  75  78 W8G14     29.85S HX  89
$$

ARZ004-005-016-231800-
NORTH CENTRAL ARKANSAS

CITY           SKY/WX    TMP DP  RH WIND       PRES   REMARKS
BATESVILLE     PTSUNNY   84  77  79 W8        29.77R HX  94
FLIPPIN        CLOUDY   N/A N/A N/A W6        29.75S
MTN HOME       CLOUDY    83  74  74 VRB6      29.77F HX  89
$$

ARZ040-041-231800-
WEST CENTRAL ARKANSAS

CITY           SKY/WX    TMP DP  RH WIND       PRES   REMARKS
MENA           PTSUNNY   88  82  84 SW6       29.85S HX 108
MOUNT IDA      PTSUNNY   88  74  63 MISG      29.81R HX  96
$$

ARZ009-017-025-026-028-231800-
NORTHEAST ARKANSAS

CITY           SKY/WX    TMP DP  RH WIND       PRES   REMARKS
CORNING        LGT RAIN  82  81  94 W6        29.70R HX  95
JONESBORO      PTSUNNY   82  76  81 W12G20    29.72R HX  89
WALNUT RIDGE   CLOUDY    82  73  74 W9        29.72R HX  88
BLYTHEVILLE    CLOUDY    79  76  90 W9G18     29.68R
$$

ARZ022-023-033-042-044-231800-
CENTRAL ARKANSAS

CITY           SKY/WX    TMP DP  RH WIND       PRES   REMARKS
LITTLE ROCK    CLOUDY    86  76  71 W9        29.79R HX  96
N LITTLE ROCK    N/A     83  76  79 W6        29.79R HX  91
JACKSONVILLE   CLOUDY    85  77  77 W9        29.79R HX  96
CONWAY           N/A     84  75  74 NW6       29.78S HX  92
SEARCY         CLOUDY    85  79  82 SW7       29.79S HX  98
HOT SPRINGS    MOSUNNY   89  77  67 W6        29.81S HX 101
RUSSELLVILLE   CLOUDY    86  75  69 NW12G18   29.79R HX  95
CLINTON        FAIR      86  73  66 CALM      29.78F HX  93
$$

ARZ036-231800-
EAST ARKANSAS

CITY           SKY/WX    TMP DP  RH WIND       PRES   REMARKS
WEST MEMPHIS   LGT RAIN  78  77  96 SW8       29.73R
$$

ARZ050-053-066-070-073-231800-
SOUTHWEST ARKANSAS

CITY           SKY/WX    TMP DP  RH WIND       PRES   REMARKS
ARKADELPHIA    CLOUDY    87  78  74 W8G16     29.82R HX 100
CAMDEN         CLOUDY    82  75  78 SW10      29.83S HX  89
TEXARKANA      MOSUNNY   88  76  67 SW10      29.83S HX  99
EL DORADO      CLOUDY    80  77  90 S9        29.86S HX  87
DE QUEEN       PTSUNNY   89  78  70 W7        29.80S HX 103
$$

ARZ056-057-069-231800-
SOUTHEAST ARKANSAS

CITY           SKY/WX    TMP DP  RH WIND       PRES   REMARKS
PINE BLUFF     CLOUDY    79  75  87 SW12      29.82R
STUTTGART      PTSUNNY   84  64  51 SW16      29.80R HX  86
MONTICELLO     CLOUDY    76  73  91 SW10      29.84R

$$






USA.gov is the U.S. government's official web portal to all federal, state and local government web resources and services.